| time (UTC) | temp F | wind direction | speed MPH | gust MPH | rain 1hr in | rain 24hr in | rain mn in | humidity % | barometer mb |
| 20260510230525 | 62 | 0 | 0.0 | 0.0 | 0.07 | 0.07 | 0.07 | 89 | 1014.3 |
| 20260510230041 | 62 | 0 | 0.0 | 1.0 | 0.07 | 0.07 | 0.07 | 88 | 1014.2 |
| 20260510225525 | 63 | 0 | 0.0 | 2.0 | 0.07 | 0.07 | 0.07 | 88 | 1014.2 |
| 20260510225025 | 63 | 0 | 0.0 | 2.0 | 0.07 | 0.07 | 0.07 | 87 | 1014.0 |
| 20260510224537 | 63 | 0 | 0.0 | 2.0 | 0.07 | 0.07 | 0.07 | 86 | 1014.2 |
| 20260510224024 | 64 | 0 | 0.0 | 3.0 | 0.07 | 0.07 | 0.07 | 86 | 1014.1 |
| 20260510223525 | 64 | 0 | 0.0 | 3.0 | 0.07 | 0.07 | 0.07 | 84 | 1014.2 |
| 20260510223045 | 64 | 278 | 0.0 | 4.0 | 0.07 | 0.07 | 0.07 | 82 | 1014.1 |
| 20260510222525 | 66 | 0 | 0.0 | 4.0 | 0.06 | 0.06 | 0.06 | 77 | 1014.2 |
| 20260510222024 | 68 | 307 | 1.0 | 5.0 | 0.04 | 0.04 | 0.04 | 71 | 1014.3 |
| 20260510221546 | 69 | 0 | 1.0 | 6.0 | 0.00 | 0.00 | 0.00 | 67 | 1014.5 |
| 20260510221027 | 70 | 298 | 2.0 | 6.0 | 0.00 | 0.00 | 0.00 | 64 | 1014.0 |
| 20260510220525 | 70 | 0 | 0.0 | 3.0 | 0.00 | 0.00 | 0.00 | 63 | 1013.8 |
| 20260510220046 | 70 | 0 | 0.0 | 3.0 | 0.00 | 0.00 | 0.00 | 63 | 1013.7 |
| 20260510215526 | 71 | 0 | 0.0 | 7.0 | 0.00 | 0.10 | 0.00 | 63 | 1013.8 |
| 20260510215025 | 71 | 0 | 1.0 | 9.0 | 0.00 | 0.10 | 0.00 | 61 | 1013.7 |
| 20260510214541 | 72 | 307 | 2.0 | 9.0 | 0.00 | 0.10 | 0.00 | 61 | 1013.7 |
| 20260510214025 | 72 | 288 | 2.0 | 9.0 | 0.00 | 0.10 | 0.00 | 60 | 1013.7 |
| 20260510213525 | 72 | 285 | 1.0 | 9.0 | 0.00 | 0.10 | 0.00 | 59 | 1013.8 |
| 20260510213054 | 73 | 309 | 2.0 | 9.0 | 0.00 | 0.10 | 0.00 | 57 | 1013.7 |
| 20260510212524 | 73 | 309 | 2.0 | 7.0 | 0.00 | 0.10 | 0.00 | 54 | 1013.5 |
| 20260510212025 | 73 | 290 | 3.0 | 9.0 | 0.00 | 0.10 | 0.00 | 52 | 1013.3 |
| 20260510211539 | 73 | 296 | 3.0 | 10.0 | 0.00 | 0.10 | 0.00 | 53 | 1013.3 |
| 20260510211026 | 73 | 305 | 3.0 | 10.0 | 0.00 | 0.10 | 0.00 | 54 | 1013.2 |
| 20260510210525 | 74 | 299 | 5.0 | 10.0 | 0.00 | 0.10 | 0.00 | 54 | 1013.1 |
| 20260510210037 | 74 | 316 | 5.0 | 10.0 | 0.00 | 0.10 | 0.00 | 57 | 1012.9 |
| 20260510205525 | 74 | 302 | 3.0 | 10.0 | 0.00 | 0.10 | 0.00 | 56 | 1012.8 |
| 20260510205025 | 74 | 259 | 3.0 | 8.0 | 0.00 | 0.10 | 0.00 | 57 | 1012.8 |
| 20260510204546 | 75 | 309 | 3.0 | 7.0 | 0.00 | 0.10 | 0.00 | 56 | 1012.7 |
| 20260510204025 | 75 | 278 | 0.0 | 12.0 | 0.00 | 0.10 | 0.00 | 56 | 1012.6 |
| 20260510203525 | 75 | 265 | 2.0 | 12.0 | 0.00 | 0.10 | 0.00 | 56 | 1012.5 |
| 20260510203041 | 75 | 315 | 5.0 | 12.0 | 0.00 | 0.10 | 0.00 | 54 | 1012.5 |
| 20260510202524 | 76 | 303 | 4.0 | 10.0 | 0.00 | 0.10 | 0.00 | 54 | 1012.7 |
| 20260510202024 | 76 | 300 | 4.0 | 10.0 | 0.00 | 0.10 | 0.00 | 54 | 1012.7 |
| 20260510201538 | 76 | 277 | 2.0 | 9.0 | 0.00 | 0.10 | 0.00 | 54 | 1012.7 |
| 20260510201025 | 76 | 243 | 2.0 | 9.0 | 0.00 | 0.10 | 0.00 | 54 | 1012.7 |
| 20260510200526 | 76 | 315 | 3.0 | 10.0 | 0.00 | 0.10 | 0.00 | 53 | 1012.6 |
| 20260510200044 | 76 | 293 | 5.0 | 10.0 | 0.00 | 0.10 | 0.00 | 54 | 1012.8 |
| 20260510195524 | 77 | 317 | 4.0 | 8.0 | 0.00 | 0.10 | 0.00 | 54 | 1012.8 |
| 20260510195025 | 78 | 265 | 2.0 | 8.0 | 0.00 | 0.10 | 0.00 | 54 | 1012.8 |
| 20260510194535 | 76 | 0 | 1.0 | 8.0 | 0.00 | 0.10 | 0.00 | 59 | 1012.8 |
| 20260510194025 | 76 | 295 | 2.0 | 7.0 | 0.00 | 0.10 | 0.00 | 54 | 1012.8 |
| 20260510193526 | 75 | 294 | 1.0 | 8.0 | 0.00 | 0.10 | 0.00 | 56 | 1013.0 |
| 20260510193042 | 75 | 300 | 3.0 | 9.0 | 0.00 | 0.10 | 0.00 | 56 | 1012.8 |
| 20260510192525 | 76 | 307 | 3.0 | 11.0 | 0.00 | 0.10 | 0.00 | 54 | 1012.8 |
| 20260510192025 | 76 | 281 | 5.0 | 12.0 | 0.00 | 0.10 | 0.00 | 53 | 1013.0 |
| 20260510191541 | 77 | 310 | 6.0 | 12.0 | 0.00 | 0.10 | 0.00 | 50 | 1013.0 |
| 20260510191025 | 78 | 342 | 2.0 | 12.0 | 0.00 | 0.10 | 0.00 | 52 | 1013.0 |
| 20260510190525 | 78 | 265 | 3.0 | 12.0 | 0.00 | 0.10 | 0.00 | 51 | 1012.9 |
| 20260510190055 | 78 | 145 | 1.0 | 5.0 | 0.00 | 0.10 | 0.00 | 50 | 1012.9 |
| 20260510185527 | 78 | 302 | 1.0 | 9.0 | 0.00 | 0.10 | 0.00 | 52 | 1013.0 |
| 20260510185025 | 77 | 281 | 3.0 | 9.0 | 0.00 | 0.10 | 0.00 | 53 | 1013.2 |
| 20260510184539 | 77 | 271 | 2.0 | 8.0 | 0.00 | 0.10 | 0.00 | 52 | 1013.2 |
| 20260510184028 | 76 | 128 | 1.0 | 9.0 | 0.00 | 0.10 | 0.00 | 55 | 1013.2 |
| 20260510183525 | 74 | 294 | 0.0 | 9.0 | 0.00 | 0.10 | 0.00 | 58 | 1013.2 |
| 20260510183041 | 74 | 312 | 3.0 | 9.0 | 0.00 | 0.10 | 0.00 | 55 | 1013.2 |
| 20260510182525 | 74 | 0 | 2.0 | 10.0 | 0.00 | 0.10 | 0.00 | 58 | 1013.2 |
| 20260510182025 | 75 | 301 | 3.0 | 10.0 | 0.00 | 0.10 | 0.00 | 55 | 1013.3 |
| 20260510181558 | 76 | 294 | 2.0 | 10.0 | 0.00 | 0.10 | 0.00 | 53 | 1013.1 |
| 20260510181025 | 76 | 258 | 1.0 | 7.0 | 0.00 | 0.10 | 0.00 | 57 | 1013.2 |
| 20260510180527 | 75 | 173 | 2.0 | 7.0 | 0.00 | 0.10 | 0.00 | 63 | 1013.2 |
| 20260510180046 | 75 | 0 | 1.0 | 6.0 | 0.00 | 0.10 | 0.00 | 58 | 1013.2 |
| 20260510175528 | 74 | 254 | 1.0 | 5.0 | 0.00 | 0.12 | 0.00 | 63 | 1013.2 |
| 20260510175025 | 74 | 204 | 1.0 | 5.0 | 0.00 | 0.12 | 0.00 | 60 | 1013.3 |
| 20260510174546 | 74 | 159 | 2.0 | 5.0 | 0.00 | 0.12 | 0.00 | 61 | 1013.2 |
| 20260510174025 | 74 | 211 | 1.0 | 4.0 | 0.00 | 0.12 | 0.00 | 62 | 1013.2 |
| 20260510173526 | 74 | 236 | 1.0 | 7.0 | 0.00 | 0.12 | 0.00 | 66 | 1013.2 |
| 20260510173035 | 73 | 167 | 1.0 | 8.0 | 0.00 | 0.12 | 0.00 | 63 | 1013.3 |
| 20260510172526 | 73 | 179 | 3.0 | 8.0 | 0.00 | 0.12 | 0.00 | 62 | 1013.3 |
| 20260510172025 | 74 | 147 | 1.0 | 6.0 | 0.00 | 0.12 | 0.00 | 62 | 1013.4 |
| 20260510171557 | 73 | 165 | 0.0 | 8.0 | 0.00 | 0.12 | 0.00 | 65 | 1013.3 |
| 20260510171024 | 73 | 283 | 3.0 | 8.0 | 0.00 | 0.12 | 0.00 | 64 | 1013.3 |
| 20260510170525 | 73 | 309 | 0.0 | 10.0 | 0.00 | 0.12 | 0.00 | 66 | 1013.3 |
| 20260510170049 | 72 | 243 | 4.0 | 10.0 | 0.00 | 0.12 | 0.00 | 63 | 1013.4 |
| 20260510165525 | 73 | 282 | 2.0 | 9.0 | 0.00 | 0.13 | 0.00 | 64 | 1013.4 |
| 20260510165026 | 72 | 344 | 3.0 | 8.0 | 0.00 | 0.13 | 0.00 | 66 | 1013.3 |
| 20260510164542 | 72 | 319 | 0.0 | 10.0 | 0.00 | 0.13 | 0.00 | 67 | 1013.3 |
| 20260510164024 | 71 | 309 | 2.0 | 10.0 | 0.00 | 0.13 | 0.00 | 67 | 1013.4 |
| 20260510163520 | 70 | 317 | 3.0 | 9.0 | 0.00 | 0.13 | 0.00 | 65 | 1013.5 |
| 20260510163047 | 70 | 0 | 1.0 | 6.0 | 0.00 | 0.13 | 0.00 | 68 | 1013.5 |
| 20260510162520 | 70 | 218 | 1.0 | 7.0 | 0.00 | 0.13 | 0.00 | 73 | 1013.4 |
| 20260510162023 | 69 | 0 | 3.0 | 7.0 | 0.00 | 0.13 | 0.00 | 68 | 1013.4 |
| 20260510161536 | 70 | 296 | 3.0 | 7.0 | 0.00 | 0.13 | 0.00 | 69 | 1013.4 |
| 20260510161026 | 70 | 293 | 0.0 | 8.0 | 0.00 | 0.13 | 0.00 | 73 | 1013.5 |
| 20260510160521 | 68 | 0 | 1.0 | 8.0 | 0.00 | 0.13 | 0.00 | 75 | 1013.5 |
| 20260510160043 | 68 | 297 | 3.0 | 7.0 | 0.00 | 0.13 | 0.00 | 72 | 1013.7 |
| 20260510155523 | 68 | 286 | 2.0 | 7.0 | 0.00 | 0.13 | 0.00 | 74 | 1013.7 |
| 20260510155020 | 67 | 322 | 1.0 | 5.0 | 0.00 | 0.13 | 0.00 | 78 | 1013.7 |
| 20260510154541 | 67 | 0 | 2.0 | 5.0 | 0.00 | 0.13 | 0.00 | 78 | 1013.8 |
| 20260510154024 | 66 | 0 | 0.0 | 3.0 | 0.00 | 0.13 | 0.00 | 81 | 1013.8 |
| 20260510153521 | 64 | 0 | 1.0 | 3.0 | 0.00 | 0.13 | 0.00 | 82 | 1013.8 |
| 20260510153044 | 64 | 0 | 0.0 | 0.0 | 0.00 | 0.13 | 0.00 | 81 | 1013.8 |
| 20260510152521 | 64 | 0 | 0.0 | 3.0 | 0.00 | 0.13 | 0.00 | 81 | 1013.9 |
| 20260510152022 | 64 | 0 | 0.0 | 6.0 | 0.00 | 0.13 | 0.00 | 83 | 1014.0 |
| 20260510151538 | 64 | 291 | 2.0 | 6.0 | 0.00 | 0.13 | 0.00 | 83 | 1014.0 |
| 20260510151022 | 63 | 159 | 1.0 | 5.0 | 0.00 | 0.13 | 0.00 | 84 | 1013.9 |
| 20260510150521 | 63 | 180 | 1.0 | 4.0 | 0.00 | 0.13 | 0.00 | 87 | 1013.9 |
| 20260510150035 | 63 | 0 | 0.0 | 3.0 | 0.00 | 0.13 | 0.00 | 87 | 1013.9 |
| 20260510145520 | 61 | 0 | 0.0 | 3.0 | 0.00 | 0.13 | 0.00 | 89 | 1013.8 |
| 20260510145020 | 61 | 209 | 0.0 | 4.0 | 0.00 | 0.13 | 0.00 | 89 | 1013.8 |
| 20260510144553 | 60 | 0 | 1.0 | 4.0 | 0.00 | 0.13 | 0.00 | 89 | 1013.8 |
| 20260510144022 | 60 | 0 | 1.0 | 5.0 | 0.00 | 0.13 | 0.00 | 90 | 1013.9 |
| 20260510143522 | 59 | 269 | 1.0 | 5.0 | 0.00 | 0.13 | 0.00 | 92 | 1014.0 |
| 20260510143042 | 58 | 83 | 0.0 | 4.0 | 0.00 | 0.13 | 0.00 | 92 | 1014.0 |
| 20260510142521 | 57 | 203 | 1.0 | 4.0 | 0.00 | 0.13 | 0.00 | 93 | 1014.0 |
| 20260510142020 | 58 | 203 | 1.0 | 3.0 | 0.00 | 0.13 | 0.00 | 94 | 1013.9 |
| 20260510141538 | 58 | 0 | 0.0 | 2.0 | 0.00 | 0.13 | 0.00 | 95 | 1013.9 |
| 20260510141024 | 57 | 168 | 0.0 | 2.0 | 0.00 | 0.13 | 0.00 | 95 | 1014.0 |
| 20260510140521 | 56 | 168 | 0.0 | 2.0 | 0.00 | 0.13 | 0.00 | 95 | 1014.0 |
| 20260510140036 | 56 | 0 | 0.0 | 1.0 | 0.00 | 0.13 | 0.00 | 96 | 1014.0 |
| 20260510135526 | 56 | 0 | 0.0 | 1.0 | 0.00 | 0.13 | 0.00 | 96 | 1013.9 |
| 20260510135026 | 56 | 0 | 0.0 | 1.0 | 0.00 | 0.13 | 0.00 | 97 | 1013.8 |
| 20260510134536 | 55 | 0 | 0.0 | 2.0 | 0.00 | 0.13 | 0.00 | 96 | 1013.7 |
| 20260510134024 | 55 | 0 | 0.0 | 3.0 | 0.00 | 0.13 | 0.00 | 96 | 1013.8 |
| 20260510133524 | 55 | 0 | 0.0 | 4.0 | 0.00 | 0.13 | 0.00 | 97 | 1013.9 |
| 20260510133041 | 55 | 195 | 1.0 | 4.0 | 0.00 | 0.13 | 0.00 | 96 | 1013.8 |
| 20260510132521 | 54 | 293 | 1.0 | 2.0 | 0.00 | 0.13 | 0.00 | 96 | 1013.9 |
| 20260510132026 | 54 | 0 | 0.0 | 2.0 | 0.00 | 0.13 | 0.00 | 97 | 1013.8 |
| 20260510131546 | 54 | 0 | 0.0 | 2.0 | 0.00 | 0.13 | 0.00 | 97 | 1013.9 |
| 20260510131027 | 54 | 0 | 0.0 | 1.0 | 0.00 | 0.13 | 0.00 | 96 | 1013.9 |
| 20260510130525 | 54 | 0 | 0.0 | 2.0 | 0.00 | 0.13 | 0.00 | 96 | 1013.8 |
| 20260510130042 | 54 | 0 | 0.0 | 2.0 | 0.00 | 0.13 | 0.00 | 96 | 1013.6 |
| 20260510125525 | 53 | 0 | 0.0 | 2.0 | 0.00 | 0.13 | 0.00 | 96 | 1013.6 |
| 20260510125024 | 53 | 0 | 1.0 | 2.0 | 0.00 | 0.13 | 0.00 | 96 | 1013.4 |
| 20260510124536 | 53 | 0 | 0.0 | 2.0 | 0.00 | 0.13 | 0.00 | 96 | 1013.6 |
| 20260510124025 | 53 | 0 | 0.0 | 2.0 | 0.00 | 0.13 | 0.00 | 96 | 1013.3 |
| 20260510123525 | 53 | 0 | 0.0 | 2.0 | 0.00 | 0.13 | 0.00 | 96 | 1013.2 |
| 20260510123042 | 53 | 348 | 0.0 | 1.0 | 0.00 | 0.13 | 0.00 | 96 | 1013.3 |
| 20260510122526 | 53 | 351 | 0.0 | 2.0 | 0.00 | 0.13 | 0.00 | 96 | 1013.3 |
| 20260510122024 | 53 | 0 | 0.0 | 2.0 | 0.00 | 0.13 | 0.00 | 96 | 1013.2 |
| 20260510121535 | 52 | 0 | 0.0 | 2.0 | 0.00 | 0.13 | 0.00 | 96 | 1013.4 |
| 20260510121025 | 52 | 351 | 0.0 | 1.0 | 0.00 | 0.13 | 0.00 | 96 | 1013.4 |
| 20260510120529 | 52 | 0 | 0.0 | 1.0 | 0.00 | 0.13 | 0.00 | 96 | 1013.3 |
| 20260510120041 | 52 | 0 | 0.0 | 1.0 | 0.00 | 0.13 | 0.00 | 96 | 1013.2 |
| 20260510115525 | 52 | 0 | 0.0 | 1.0 | 0.00 | 0.13 | 0.00 | 96 | 1013.2 |
| 20260510115025 | 52 | 0 | 0.0 | 2.0 | 0.00 | 0.13 | 0.00 | 96 | 1013.2 |
| 20260510114537 | 52 | 0 | 0.0 | 2.0 | 0.00 | 0.13 | 0.00 | 96 | 1013.0 |
| 20260510114024 | 52 | 0 | 0.0 | 3.0 | 0.00 | 0.13 | 0.00 | 96 | 1012.9 |
| 20260510113525 | 52 | 0 | 0.0 | 3.0 | 0.00 | 0.13 | 0.00 | 96 | 1013.0 |
| 20260510113041 | 52 | 303 | 0.0 | 3.0 | 0.00 | 0.13 | 0.00 | 96 | 1013.0 |
| 20260510112525 | 51 | 0 | 0.0 | 3.0 | 0.00 | 0.13 | 0.00 | 96 | 1012.9 |
| 20260510112025 | 51 | 0 | 0.0 | 1.0 | 0.00 | 0.13 | 0.00 | 96 | 1012.9 |
| 20260510111542 | 51 | 0 | 0.0 | 2.0 | 0.00 | 0.13 | 0.00 | 96 | 1012.8 |
| 20260510111024 | 51 | 0 | 0.0 | 2.0 | 0.00 | 0.13 | 0.00 | 96 | 1012.7 |
| 20260510110524 | 51 | 0 | 0.0 | 1.0 | 0.00 | 0.13 | 0.00 | 96 | 1012.7 |
| 20260510110053 | 51 | 0 | 0.0 | 3.0 | 0.00 | 0.13 | 0.00 | 96 | 1012.8 |
| 20260510105525 | 51 | 0 | 0.0 | 3.0 | 0.00 | 0.13 | 0.00 | 96 | 1012.7 |
| 20260510105025 | 51 | 301 | 1.0 | 3.0 | 0.00 | 0.13 | 0.00 | 96 | 1012.6 |
| 20260510104542 | 51 | 0 | 0.0 | 3.0 | 0.00 | 0.13 | 0.00 | 96 | 1012.3 |
| 20260510104025 | 51 | 42 | 0.0 | 3.0 | 0.00 | 0.13 | 0.00 | 96 | 1012.2 |
| 20260510103543 | 51 | 0 | 0.0 | 2.0 | 0.00 | 0.13 | 0.00 | 96 | 1012.1 |
| 20260510103046 | 51 | 0 | 0.0 | 3.0 | 0.00 | 0.13 | 0.00 | 96 | 1012.1 |
| 20260510102525 | 50 | 71 | 0.0 | 3.0 | 0.00 | 0.13 | 0.00 | 96 | 1012.2 |
| 20260510102024 | 50 | 0 | 0.0 | 2.0 | 0.00 | 0.13 | 0.00 | 96 | 1012.2 |
| 20260510101535 | 50 | 69 | 0.0 | 2.0 | 0.00 | 0.13 | 0.00 | 96 | 1012.4 |
| 20260510101022 | 50 | 82 | 0.0 | 1.0 | 0.00 | 0.13 | 0.00 | 96 | 1012.3 |
| 20260510100525 | 50 | 0 | 0.0 | 2.0 | 0.00 | 0.13 | 0.00 | 96 | 1012.2 |
| 20260510100047 | 50 | 0 | 0.0 | 2.0 | 0.00 | 0.13 | 0.00 | 96 | 1012.3 |
| 20260510095522 | 50 | 0 | 0.0 | 2.0 | 0.00 | 0.13 | 0.00 | 96 | 1012.2 |
| 20260510095025 | 50 | 0 | 0.0 | 3.0 | 0.00 | 0.13 | 0.00 | 95 | 1012.2 |
| 20260510094540 | 50 | 0 | 0.0 | 3.0 | 0.00 | 0.13 | 0.00 | 96 | 1012.2 |
| 20260510094024 | 49 | 0 | 0.0 | 3.0 | 0.00 | 0.13 | 0.00 | 96 | 1012.2 |
| 20260510093525 | 49 | 37 | 0.0 | 4.0 | 0.00 | 0.13 | 0.00 | 96 | 1012.3 |
| 20260510093039 | 49 | 37 | 1.0 | 4.0 | 0.00 | 0.13 | 0.00 | 95 | 1012.1 |
| 20260510092524 | 49 | 350 | 1.0 | 4.0 | 0.00 | 0.13 | 0.00 | 95 | 1012.2 |
| 20260510092025 | 49 | 244 | 1.0 | 4.0 | 0.00 | 0.13 | 0.00 | 95 | 1012.2 |
| 20260510091541 | 49 | 44 | 0.0 | 8.0 | 0.00 | 0.13 | 0.00 | 95 | 1012.0 |
| 20260510091025 | 48 | 298 | 1.0 | 8.0 | 0.00 | 0.13 | 0.00 | 95 | 1012.2 |
| 20260510090525 | 48 | 300 | 2.0 | 8.0 | 0.00 | 0.13 | 0.00 | 95 | 1012.2 |
| 20260510090037 | 48 | 264 | 0.0 | 4.0 | 0.00 | 0.13 | 0.00 | 95 | 1011.9 |
| 20260510085525 | 48 | 0 | 0.0 | 0.0 | 0.00 | 0.13 | 0.00 | 95 | 1011.9 |
| 20260510085024 | 48 | 0 | 0.0 | 0.0 | 0.00 | 0.13 | 0.00 | 95 | 1011.6 |
| 20260510084537 | 48 | 0 | 0.0 | 0.0 | 0.00 | 0.13 | 0.00 | 95 | 1011.5 |
| 20260510084025 | 48 | 0 | 0.0 | 0.0 | 0.00 | 0.13 | 0.00 | 95 | 1011.6 |
| 20260510083525 | 48 | 0 | 0.0 | 3.0 | 0.00 | 0.13 | 0.00 | 95 | 1011.6 |
| 20260510083037 | 48 | 0 | 0.0 | 3.0 | 0.00 | 0.13 | 0.00 | 95 | 1011.6 |
| 20260510082524 | 48 | 0 | 1.0 | 3.0 | 0.00 | 0.13 | 0.00 | 95 | 1011.7 |
| 20260510082024 | 48 | 0 | 1.0 | 3.0 | 0.00 | 0.13 | 0.00 | 95 | 1011.6 |
| 20260510081543 | 48 | 0 | 0.0 | 2.0 | 0.00 | 0.13 | 0.00 | 95 | 1011.7 |
| 20260510081025 | 48 | 65 | 0.0 | 2.0 | 0.00 | 0.13 | 0.00 | 95 | 1011.6 |
| 20260510080525 | 48 | 0 | 0.0 | 0.0 | 0.00 | 0.13 | 0.00 | 95 | 1011.7 |
| 20260510080053 | 48 | 0 | 0.0 | 1.0 | 0.00 | 0.13 | 0.00 | 95 | 1011.7 |
| 20260510075525 | 48 | 0 | 0.0 | 1.0 | 0.00 | 0.13 | 0.00 | 95 | 1011.7 |
| 20260510075024 | 48 | 0 | 0.0 | 1.0 | 0.00 | 0.13 | 0.00 | 95 | 1011.6 |
| 20260510074549 | 48 | 0 | 0.0 | 1.0 | 0.00 | 0.13 | 0.00 | 95 | 1011.5 |
| 20260510074027 | 48 | 0 | 0.0 | 1.0 | 0.00 | 0.13 | 0.00 | 95 | 1011.6 |
| 20260510073524 | 48 | 0 | 0.0 | 1.0 | 0.00 | 0.13 | 0.00 | 95 | 1011.4 |
| 20260510073042 | 48 | 0 | 0.0 | 1.0 | 0.00 | 0.13 | 0.00 | 94 | 1011.5 |
| 20260510072523 | 48 | 0 | 0.0 | 1.0 | 0.00 | 0.13 | 0.00 | 94 | 1011.4 |
| 20260510072023 | 47 | 0 | 0.0 | 0.0 | 0.00 | 0.13 | 0.00 | 94 | 1011.5 |
| 20260510071537 | 47 | 0 | 0.0 | 0.0 | 0.00 | 0.13 | 0.00 | 94 | 1011.3 |
| 20260510071025 | 47 | 0 | 0.0 | 0.0 | 0.00 | 0.13 | 0.00 | 94 | 1011.3 |
| 20260510070525 | 47 | 0 | 0.0 | 0.0 | 0.00 | 0.13 | 0.00 | 94 | 1011.1 |
| 20260510070050 | 48 | 0 | 0.0 | 0.0 | 0.00 | 0.13 | 0.00 | 94 | 1011.1 |
| 20260510065522 | 48 | 0 | 0.0 | 0.0 | 0.00 | 0.13 | 0.00 | 94 | 1010.9 |
| 20260510065027 | 48 | 0 | 0.0 | 1.0 | 0.00 | 0.13 | 0.00 | 94 | 1010.9 |
| 20260510064543 | 48 | 0 | 0.0 | 1.0 | 0.00 | 0.13 | 0.00 | 94 | 1010.9 |
| 20260510064026 | 48 | 0 | 0.0 | 0.0 | 0.00 | 0.13 | 0.00 | 94 | 1010.9 |
| 20260510063525 | 48 | 0 | 0.0 | 1.0 | 0.00 | 0.13 | 0.00 | 94 | 1011.0 |
| 20260510063037 | 48 | 0 | 0.0 | 1.0 | 0.00 | 0.13 | 0.00 | 94 | 1011.0 |
| 20260510062522 | 48 | 0 | 0.0 | 1.0 | 0.00 | 0.13 | 0.00 | 94 | 1011.0 |
| 20260510062022 | 48 | 0 | 0.0 | 1.0 | 0.00 | 0.13 | 0.00 | 94 | 1011.0 |
| 20260510061543 | 48 | 0 | 0.0 | 0.0 | 0.00 | 0.13 | 0.00 | 94 | 1011.0 |
| 20260510061026 | 48 | 0 | 0.0 | 1.0 | 0.00 | 0.13 | 0.00 | 94 | 1011.2 |
| 20260510060523 | 48 | 0 | 0.0 | 1.0 | 0.00 | 0.13 | 0.00 | 94 | 1011.1 |
| 20260510060046 | 48 | 0 | 0.0 | 1.0 | 0.00 | 0.13 | 0.00 | 94 | 1011.1 |
| 20260510055526 | 48 | 0 | 0.0 | 1.0 | 0.00 | 0.13 | 0.00 | 93 | 1011.3 |
| 20260510055025 | 48 | 0 | 0.0 | 1.0 | 0.00 | 0.13 | 0.00 | 93 | 1011.3 |
| 20260510054540 | 49 | 0 | 0.0 | 1.0 | 0.00 | 0.13 | 0.00 | 93 | 1011.3 |
| 20260510054026 | 49 | 0 | 0.0 | 1.0 | 0.00 | 0.13 | 0.00 | 93 | 1011.4 |
| 20260510053525 | 49 | 0 | 0.0 | 1.0 | 0.00 | 0.13 | 0.00 | 93 | 1011.4 |
| 20260510053046 | 49 | 0 | 0.0 | 0.0 | 0.00 | 0.13 | 0.00 | 93 | 1011.4 |
| 20260510052523 | 49 | 0 | 0.0 | 0.0 | 0.00 | 0.13 | 0.00 | 93 | 1011.4 |
| 20260510052025 | 49 | 0 | 0.0 | 0.0 | 0.00 | 0.13 | 0.00 | 93 | 1011.5 |
| 20260510051536 | 49 | 0 | 0.0 | 0.0 | 0.00 | 0.13 | 0.00 | 93 | 1011.5 |
| 20260510051025 | 49 | 0 | 0.0 | 0.0 | 0.00 | 0.13 | 0.00 | 93 | 1011.5 |
| 20260510050524 | 49 | 0 | 0.0 | 0.0 | 0.00 | 0.13 | 0.00 | 93 | 1011.5 |
| 20260510050037 | 49 | 0 | 0.0 | 0.0 | 0.00 | 0.13 | 0.00 | 93 | 1011.5 |
| 20260510045523 | 49 | 0 | 0.0 | 0.0 | 0.00 | 0.13 | 0.00 | 93 | 1011.5 |
| 20260510045022 | 49 | 0 | 0.0 | 0.0 | 0.00 | 0.13 | 0.00 | 93 | 1011.6 |
| 20260510044540 | 49 | 0 | 0.0 | 0.0 | 0.00 | 0.13 | 0.00 | 93 | 1011.6 |
| 20260510044025 | 50 | 0 | 0.0 | 0.0 | 0.00 | 0.13 | 0.00 | 93 | 1011.7 |
| 20260510043522 | 50 | 0 | 0.0 | 0.0 | 0.00 | 0.13 | 0.00 | 93 | 1011.7 |
| 20260510043042 | 50 | 0 | 0.0 | 0.0 | 0.00 | 0.13 | 0.00 | 93 | 1011.6 |
| 20260510042526 | 50 | 0 | 0.0 | 0.0 | 0.00 | 0.13 | 0.00 | 93 | 1011.7 |
| 20260510042025 | 50 | 0 | 0.0 | 0.0 | 0.00 | 0.13 | 0.00 | 93 | 1011.8 |
| 20260510041536 | 50 | 0 | 0.0 | 0.0 | 0.00 | 0.13 | 0.00 | 93 | 1011.8 |
| 20260510041025 | 50 | 0 | 0.0 | 0.0 | 0.00 | 0.13 | 0.00 | 93 | 1011.8 |
| 20260510040522 | 50 | 0 | 0.0 | 0.0 | 0.00 | 0.13 | 0.00 | 93 | 1011.7 |
| 20260510040040 | 50 | 0 | 0.0 | 0.0 | 0.00 | 0.13 | 0.00 | 92 | 1011.6 |
| 20260510035521 | 50 | 0 | 0.0 | 0.0 | 0.00 | 0.13 | 0.13 | 93 | 1011.6 |
| 20260510035025 | 50 | 0 | 0.0 | 0.0 | 0.00 | 0.13 | 0.13 | 92 | 1011.5 |
| 20260510034542 | 50 | 0 | 0.0 | 0.0 | 0.00 | 0.13 | 0.13 | 92 | 1011.6 |
| 20260510034025 | 50 | 0 | 0.0 | 0.0 | 0.00 | 0.13 | 0.13 | 92 | 1011.5 |
| 20260510033524 | 50 | 0 | 0.0 | 0.0 | 0.00 | 0.13 | 0.13 | 92 | 1011.5 |
| 20260510033046 | 50 | 0 | 0.0 | 0.0 | 0.00 | 0.13 | 0.13 | 92 | 1011.4 |
| 20260510032525 | 50 | 0 | 0.0 | 0.0 | 0.00 | 0.13 | 0.13 | 92 | 1011.3 |
| 20260510032025 | 50 | 0 | 0.0 | 0.0 | 0.00 | 0.13 | 0.13 | 92 | 1011.3 |
| 20260510031547 | 50 | 0 | 0.0 | 0.0 | 0.00 | 0.13 | 0.13 | 92 | 1011.4 |
| 20260510031025 | 50 | 0 | 0.0 | 0.0 | 0.00 | 0.13 | 0.13 | 92 | 1011.5 |
| 20260510030523 | 51 | 0 | 0.0 | 0.0 | 0.00 | 0.13 | 0.13 | 92 | 1011.4 |
| 20260510030043 | 51 | 0 | 0.0 | 0.0 | 0.00 | 0.13 | 0.13 | 92 | 1011.5 |
| 20260510025527 | 51 | 0 | 0.0 | 0.0 | 0.00 | 0.13 | 0.13 | 92 | 1011.4 |
| 20260510025025 | 51 | 0 | 0.0 | 0.0 | 0.00 | 0.13 | 0.13 | 92 | 1011.4 |
| 20260510024539 | 51 | 0 | 0.0 | 0.0 | 0.00 | 0.13 | 0.13 | 92 | 1011.3 |
| 20260510024022 | 51 | 0 | 0.0 | 0.0 | 0.00 | 0.13 | 0.13 | 92 | 1011.4 |
| 20260510023524 | 51 | 0 | 0.0 | 0.0 | 0.00 | 0.13 | 0.13 | 92 | 1011.4 |
| 20260510023037 | 51 | 0 | 0.0 | 0.0 | 0.00 | 0.13 | 0.13 | 91 | 1011.4 |
| 20260510022525 | 52 | 0 | 0.0 | 0.0 | 0.00 | 0.13 | 0.13 | 91 | 1011.3 |
| 20260510022026 | 52 | 0 | 0.0 | 0.0 | 0.00 | 0.13 | 0.13 | 91 | 1011.3 |
| 20260510021611 | 52 | 0 | 0.0 | 0.0 | 0.00 | 0.13 | 0.13 | 92 | 1011.2 |
| 20260510021024 | 52 | 0 | 0.0 | 0.0 | 0.00 | 0.13 | 0.13 | 91 | 1011.1 |
| 20260510020522 | 52 | 0 | 0.0 | 0.0 | 0.00 | 0.13 | 0.13 | 91 | 1011.2 |
| 20260510020043 | 52 | 0 | 0.0 | 0.0 | 0.00 | 0.13 | 0.13 | 91 | 1011.1 |
| 20260510015524 | 52 | 0 | 0.0 | 0.0 | 0.00 | 0.13 | 0.13 | 91 | 1011.1 |
| 20260510015022 | 53 | 0 | 0.0 | 0.0 | 0.00 | 0.13 | 0.13 | 91 | 1011.2 |
| 20260510014552 | 53 | 0 | 0.0 | 0.0 | 0.00 | 0.13 | 0.13 | 91 | 1011.4 |
| 20260510014025 | 53 | 0 | 0.0 | 0.0 | 0.00 | 0.13 | 0.13 | 91 | 1011.4 |
| 20260510013524 | 53 | 0 | 0.0 | 0.0 | 0.00 | 0.13 | 0.13 | 91 | 1011.4 |
| 20260510013043 | 53 | 0 | 0.0 | 0.0 | 0.00 | 0.13 | 0.13 | 91 | 1011.4 |
| 20260510012539 | 53 | 0 | 0.0 | 0.0 | 0.00 | 0.13 | 0.13 | 91 | 1011.4 |
| 20260510012027 | 53 | 0 | 0.0 | 0.0 | 0.00 | 0.13 | 0.13 | 91 | 1011.3 |
| 20260510011535 | 54 | 0 | 0.0 | 0.0 | 0.00 | 0.13 | 0.13 | 91 | 1011.2 |
| 20260510011025 | 54 | 0 | 0.0 | 0.0 | 0.00 | 0.13 | 0.13 | 90 | 1011.0 |
| 20260510010524 | 54 | 0 | 0.0 | 0.0 | 0.00 | 0.13 | 0.13 | 90 | 1010.9 |
| 20260510010052 | 54 | 0 | 0.0 | 0.0 | 0.00 | 0.13 | 0.13 | 90 | 1011.0 |
| 20260510005525 | 54 | 0 | 0.0 | 0.0 | 0.00 | 0.13 | 0.13 | 90 | 1010.9 |
| 20260510005025 | 54 | 0 | 0.0 | 1.0 | 0.00 | 0.13 | 0.13 | 90 | 1011.0 |
| 20260510004541 | 55 | 0 | 0.0 | 1.0 | 0.00 | 0.13 | 0.13 | 90 | 1011.0 |
| 20260510004025 | 55 | 0 | 0.0 | 0.0 | 0.00 | 0.13 | 0.13 | 90 | 1010.9 |
| 20260510003525 | 55 | 0 | 0.0 | 0.0 | 0.00 | 0.13 | 0.13 | 90 | 1010.8 |
| 20260510003042 | 55 | 0 | 0.0 | 0.0 | 0.00 | 0.13 | 0.13 | 90 | 1010.8 |
| 20260510002525 | 55 | 0 | 0.0 | 0.0 | 0.00 | 0.13 | 0.13 | 90 | 1010.9 |
| 20260510002025 | 55 | 0 | 0.0 | 0.0 | 0.00 | 0.13 | 0.13 | 90 | 1010.8 |
| 20260510001539 | 56 | 0 | 0.0 | 0.0 | 0.00 | 0.13 | 0.13 | 91 | 1010.8 |
| 20260510001025 | 56 | 0 | 0.0 | 0.0 | 0.00 | 0.13 | 0.13 | 91 | 1010.7 |
| 20260510000525 | 56 | 0 | 0.0 | 0.0 | 0.00 | 0.13 | 0.13 | 91 | 1010.7 |
| 20260510000037 | 56 | 0 | 0.0 | 0.0 | 0.00 | 0.13 | 0.13 | 91 | 1010.8 |
| 20260509235525 | 56 | 0 | 0.0 | 0.0 | 0.00 | 0.13 | 0.13 | 91 | 1010.8 |
| 20260509235024 | 56 | 0 | 0.0 | 0.0 | 0.00 | 0.13 | 0.13 | 91 | 1010.7 |
| 20260509234536 | 56 | 0 | 0.0 | 0.0 | 0.00 | 0.13 | 0.13 | 91 | 1010.8 |
| 20260509234023 | 56 | 0 | 0.0 | 0.0 | 0.00 | 0.13 | 0.13 | 91 | 1010.8 |
| 20260509233524 | 56 | 0 | 0.0 | 1.0 | 0.00 | 0.13 | 0.13 | 91 | 1010.6 |
| 20260509233040 | 56 | 0 | 0.0 | 1.0 | 0.00 | 0.13 | 0.13 | 91 | 1010.5 |
| 20260509232526 | 56 | 0 | 0.0 | 2.0 | 0.00 | 0.13 | 0.13 | 91 | 1010.5 |
| 20260509232023 | 56 | 0 | 0.0 | 2.0 | 0.00 | 0.13 | 0.13 | 91 | 1010.4 |
| 20260509231547 | 56 | 65 | 0.0 | 2.0 | 0.00 | 0.13 | 0.13 | 91 | 1010.4 |
| 20260509231027 | 56 | 65 | 0.0 | 3.0 | 0.00 | 0.13 | 0.13 | 91 | 1010.4 |